This is the latest recevied weather packets stored in our database for station/object KY4LEX. If no packets are shown the sender has not sent any weather packets the latest 10 day(s).
| Time | Temp. | Humidity | Pressure | Rain* | Wind** | Luminosity | Snow |
|---|---|---|---|---|---|---|---|
| 1778138074 | 10° C | 79% | 1019.5 hPa | 0 mm | - | 0 W/m² | - |
| 1778137771 | 9.44° C | 82% | 1019.7 hPa | 0 mm | - | 0 W/m² | - |
| 1778137468 | 9.44° C | 82% | 1019.6 hPa | 0 mm | - | 0 W/m² | - |
| 1778137165 | 9.44° C | 82% | 1019.6 hPa | 0 mm | - | 0 W/m² | - |
| 1778136862 | 9.44° C | 80% | 1019.7 hPa | 0 mm | - | 0 W/m² | - |
| 1778136559 | 9.44° C | 81% | 1019.7 hPa | 0 mm | - | 0 W/m² | - |
| 1778136257 | 9.44° C | 80% | 1019.6 hPa | 0 mm | - | 0 W/m² | - |
| 1778135955 | 9.44° C | 80% | 1019.6 hPa | 0 mm | - | 0 W/m² | - |
| 1778135652 | 10° C | 82% | 1019.6 hPa | 0 mm | - | 0 W/m² | - |
| 1778135349 | 10° C | 81% | 1019.9 hPa | 0 mm | - | 0 W/m² | - |
| 1778135045 | 10° C | 80% | 1019.8 hPa | 0 mm | - | 0 W/m² | - |
| 1778134743 | 10° C | 79% | 1020 hPa | 0 mm | - | 0 W/m² | - |
| 1778134441 | 10° C | 78% | 1020.2 hPa | 0 mm | - | 0 W/m² | - |
| 1778134139 | 10.56° C | 78% | 1020.2 hPa | 0 mm | - | 0 W/m² | - |
| 1778133835 | 10.56° C | 75% | 1020.1 hPa | 0 mm | - | 0 W/m² | - |
| 1778133533 | 10.56° C | 75% | 1020.1 hPa | 0 mm | - | 0 W/m² | - |
| 1778133233 | 10.56° C | 74% | 1019.9 hPa | 0 mm | - | 0 W/m² | - |
| 1778132930 | 10.56° C | 74% | 1020 hPa | 0 mm | - | 0 W/m² | - |
| 1778132626 | 11.11° C | 72% | 1019.7 hPa | 0 mm | - | 0 W/m² | - |
| 1778132323 | 11.11° C | 72% | 1019.6 hPa | 0 mm | - | 0 W/m² | - |
| 1778132022 | 11.11° C | 71% | 1019.8 hPa | 0 mm | - | 0 W/m² | - |
| 1778131720 | 11.11° C | 73% | 1019.7 hPa | 0 mm | - | 0 W/m² | - |
| 1778131416 | 11.11° C | 72% | 1019.9 hPa | 0 mm | - | 0 W/m² | - |
| 1778131114 | 11.11° C | 75% | 1019.7 hPa | 0 mm | - | 0 W/m² | - |
| 1778130811 | 11.11° C | 70% | 1019.9 hPa | 0 mm | - | 0 W/m² | - |
* Rain latest hour (hover to see other rain measurements)
** Current wind speed in m/s (hover to see current wind gust speed)